[[{"header":{"parameterUnit":"m.s-1","parameterCategory":1,"la1":30.2991,"la2":30.254,"lo1":-89.0895,"lo2":-89.0444,"dy":0.0017,"dx":0.0017,"nx":28,"ny":28,"refTime":"2023-11-20T03:00:00:Z","depth":0,"parameterNumber":2,"parameterNumberName":"U-component_of_WINDS"},"data":[0,0,0,0,0,0,0,0,0,0,0,0,0,0,0,0,0,0,0,0,0,0,0,0,0,0,0,0,0,0,0,0,0,0,0,0,0,0,0,0,0,0,0,0,0,0,0,0,0,0,0,0,0,0,0,0,0,0,-5.4877,-5.4878,0,-5.4999,-5.5,-5.5001,-5.4984,-5.4982,-5.498,-5.4978,-5.51,-5.5105,-5.511,0,0,0,0,0,0,0,0,0,0,0,0,0,-5.4628,-5.4633,-5.4877,-5.4879,-5.488,-5.4998,-5.5,-5.5002,-5.4985,-5.4982,-5.498,-5.4977,-5.5098,-5.5104,-5.511,0,0,0,0,0,0,0,0,0,0,0,0,0,-5.4741,-5.4634,-5.4877,-5.4886,-5.4888,-5.4998,-5.5,-5.5002,-5.4985,-5.4982,-5.4979,-5.4976,-5.5096,-5.5103,-5.5111,-5.5219,0,0,-5.5134,-5.5138,0,0,0,0,0,0,0,0,-5.4735,-5.4751,-5.4883,-5.4885,-5.4888,-5.4973,-5.4957,-5.5075,-5.4986,-5.4948,-5.4978,-5.4975,-5.506,-5.507,-5.51,-5.5225,-5.523,-5.5135,-5.514,-5.5143,-5.5145,0,0,0,0,0,0,0,-5.4727,-5.4745,-5.4925,-5.4885,-5.4888,-5.4883,-5.4896,-5.4979,-5.5019,-5.4951,-5.495,-5.4965,-5.5061,-5.5092,-5.5102,-5.5232,-5.5135,-5.5142,-5.5146,-5.5149,-5.5451,-5.5455,0,0,0,0,0,0,-5.4717,-5.4739,-5.4921,-5.4929,-5.4803,-5.489,-5.4904,-5.4949,-5.5018,-5.5026,-5.4967,-5.4964,-5.5081,-5.5093,-5.5107,-5.5236,-5.5143,-5.515,-5.5155,-5.5448,-5.5452,-5.5456,0,0,0,0,0,0,-5.4712,-5.4734,-5.4916,-5.4834,-5.4857,-5.4898,-5.4948,-5.4953,-5.4984,-5.5031,-5.5038,-5.4992,-5.5079,-5.5096,-5.5191,-5.524,-5.5154,-5.5161,-5.5444,-5.5449,-5.5454,-5.5498,0,0,0,0,0,0,-5.4705,-5.4732,-5.4773,-5.4835,-5.4861,-5.4999,-5.4951,-5.4957,-5.4998,-5.4994,-5.5056,-5.5063,-5.5078,-5.518,-5.5199,-5.5249,-5.5167,-5.544,-5.5446,-5.5452,-5.5492,-5.5504,-5.5514,0,0,0,0,0,-5.4696,-5.478,-5.4776,-5.4798,-5.4914,-5.5002,-5.5017,-5.5033,-5.5002,-5.5044,-5.5074,-5.5061,-5.5233,-5.519,-5.5211,-5.5265,-5.5436,-5.5444,-5.5452,-5.5487,-5.5501,-5.5513,0,0,0,0,0,0,-5.4722,-5.4788,-5.4784,-5.4891,-5.4941,-5.4999,-5.5052,-5.5048,-5.5107,-5.5101,-5.5117,-5.5131,-5.5227,-5.5256,-5.5207,-5.5373,-5.533,-5.5343,-5.535,-5.5364,-5.5375,-5.5364,-5.5173,0,0,0,0,0,-5.4741,-5.4808,-5.4862,-5.4951,-5.4977,-5.5011,-5.5049,-5.5058,-5.511,-5.5131,-5.5168,-5.5218,-5.5283,-5.5326,-5.5389,-5.5498,-5.551,-5.5545,-5.5556,-5.5564,-5.5574,-5.5632,-5.5648,-5.5481,-5.5481,-5.5481,0,0,-5.4779,-5.4823,-5.4864,-5.4957,-5.4997,-5.5065,-5.5028,-5.5102,-5.5152,-5.5142,-5.5233,-5.5263,-5.5321,-5.5423,-5.547,-5.545,-5.5623,-5.5574,-5.5581,-5.5585,-5.5642,-5.5658,-5.5672,-5.5486,-5.5485,-5.5484,0,0,-5.4882,-5.4924,-5.5002,-5.5044,-5.5105,-5.5128,-5.5147,-5.5206,-5.5226,-5.5319,-5.5313,-5.5373,-5.5485,-5.5526,-5.5562,-5.5684,-5.5674,-5.5705,-5.576,-5.5817,-5.583,-5.5842,-5.5883,-5.5898,-5.5714,-5.5715,-5.5715,0,-5.4921,-5.5024,-5.5042,-5.5117,-5.5158,-5.5154,-5.5233,-5.5272,-5.5351,-5.5378,-5.5356,-5.5497,-5.5536,-5.5647,-5.5677,-5.5707,-5.5728,-5.5695,-5.5827,-5.5839,-5.585,-5.589,-5.5905,-5.5718,-5.5717,-5.5717,-5.5717,0,-5.5068,-5.514,-5.5196,-5.5273,-5.532,-5.5397,-5.5426,-5.5472,-5.5477,-5.5502,-5.5597,-5.5644,-5.5716,-5.5744,-5.5749,-5.5856,-5.5842,-5.5823,-5.578,-5.5869,-5.5906,-5.5922,-5.5722,-5.5721,-5.572,-5.5719,0,0,-5.5187,-5.5276,-5.5296,-5.5331,-5.54,-5.5455,-5.5532,-5.5604,-5.5642,-5.5698,-5.5761,-5.5858,-5.5841,-5.5882,-5.5892,-5.5943,-5.6035,-5.5918,-5.5919,-5.5935,-5.6154,-5.6165,-5.6183,-5.603,-5.6033,-5.6036,-5.6148,0,-5.5295,-5.5431,-5.5451,-5.557,-5.5636,-5.5635,-5.5702,-5.5751,-5.5777,-5.5837,-5.5865,-5.5932,-5.5907,-5.5931,-5.5982,-5.6013,-5.6078,-5.6005,-5.6087,-5.609,-5.6069,-5.6203,-5.6215,-5.6318,-5.6163,-5.6166,-5.6168,0,-5.5438,-5.5498,-5.5624,-5.5686,-5.5714,-5.5774,-5.5841,-5.5899,-5.5955,-5.5971,-5.6017,-5.6022,-5.6101,-5.6058,-5.6166,-5.6116,-5.6151,-5.6172,-5.6177,-5.6182,-5.6131,-5.6208,-5.6352,-5.6366,-5.6192,-5.619,-5.6188,0,-5.5509,-5.5622,-5.5712,-5.5743,-5.5817,-5.5859,-5.5891,-5.5945,-5.5987,-5.6047,-5.6074,-5.6142,-5.6178,-5.623,-5.6253,-5.622,-5.6359,-5.6318,-5.6372,-5.6372,-5.6398,-5.6395,-5.6546,-5.6427,-5.6427,-5.6426,-5.6426,0,-5.5625,-5.5701,-5.5745,-5.58,-5.5886,-5.5909,-5.5993,-5.6025,-5.6073,-5.6133,-5.6138,-5.6194,-5.6223,-5.6283,-5.6302,-5.6388,-5.6405,-5.6418,-5.6422,-5.6416,-5.6414,-5.6436,-5.6429,-5.6431,-5.643,-5.6429,-5.6428,0,-5.5716,-5.5749,-5.5847,-5.591,-5.5928,-5.5988,-5.6042,-5.6095,-5.6123,-5.6199,-5.6218,-5.6261,-5.6333,-5.6362,-5.645,-5.6462,-5.656,-5.656,-5.6541,-5.6541,-5.6593,-5.6586,-5.676,-5.6783,-5.6652,-5.6653,-5.6654,0,-5.5786,-5.5845,-5.5916,-5.5957,-5.5992,-5.6059,-5.6102,-5.6129,-5.6173,-5.6243,-5.6288,-5.6361,-5.6419,-5.6534,-5.6572,-5.664,-5.6639,-5.6695,-5.6648,-5.6641,-5.6636,-5.6631,-5.6636,-5.6702,-5.6704,-5.6705,-5.6706,0,-5.5906,-5.592,-5.5983,-5.6053,-5.6105,-5.6161,-5.6215,-5.6249,-5.6283,-5.6334,-5.6408,-5.6454,-5.6545,-5.6616,-5.6686,-5.6719,-5.6718,-5.6721,-5.6736,-5.6729,-5.6715,-5.6721,-5.6561,-5.6715,-5.6714,-5.6714,-5.6713,-5.6713,-5.5987,-5.604,-5.6098,-5.6168,-5.6212,-5.6263,-5.6316,-5.6351,-5.6414,-5.649,-5.6503,-5.6582,-5.6638,-5.6732,-5.6769,-5.683,-5.6815,-5.6839,-5.6844,-5.6848,-5.685,-5.6708,-5.6844,-5.6843,-5.6843,-5.6843,-5.6843,0,-5.6105,-5.6143,-5.6208,-5.6284,-5.634,-5.6337,-5.6398,-5.6443,-5.6513,-5.6567,-5.6625,-5.6711,-5.6781,-5.6826,-5.6896,-5.6937,-5.6938,-5.6954,-5.6949,-5.6957,-5.6861,-5.6839,-5.6952,-5.6952,-5.6952,-5.6952,-5.6952,-5.6952,-5.6172,-5.626,-5.6282,-5.6392,-5.6429,-5.6508,-5.6542,-5.6589,-5.6632,-5.6728,-5.6786,-5.6816,-5.6866,-5.694,-5.7004,-5.7015,-5.704,-5.7056,-5.7066,-5.6975,-5.6963,-5.6952,-5.6932,-5.7062,-5.7063,-5.7156,-5.7157,-5.7158]},{"header":{"parameterUnit":"m.s-1","parameterCategory":1,"la1":30.2991,"la2":30.254,"lo1":-89.0895,"lo2":-89.0444,"dy":0.0017,"dx":0.0017,"nx":28,"ny":28,"refTime":"2023-11-20T03:00:00:Z","depth":0,"parameterNumber":3,"parameterNumberName":"V-component_of_WINDS"},"data":[0,0,0,0,0,0,0,0,0,0,0,0,0,0,0,0,0,0,0,0,0,0,0,0,0,0,0,0,0,0,0,0,0,0,0,0,0,0,0,0,0,0,0,0,0,0,0,0,0,0,0,0,0,0,0,0,0,0,3.5071,3.5072,0,3.5179,3.518,3.5182,3.5142,3.5139,3.5137,3.5134,3.5245,3.525,3.5256,0,0,0,0,0,0,0,0,0,0,0,0,0,3.4832,3.4836,3.5071,3.5072,3.5073,3.5179,3.518,3.5182,3.5142,3.5139,3.5136,3.5133,3.5244,3.525,3.5256,0,0,0,0,0,0,0,0,0,0,0,0,0,3.4937,3.4838,3.507,3.5066,3.5067,3.5179,3.518,3.5182,3.5143,3.5139,3.5135,3.5132,3.5242,3.5249,3.5257,3.5379,0,0,3.5281,3.5284,0,0,0,0,0,0,0,0,3.4931,3.4946,3.5065,3.5067,3.5068,3.5143,3.5137,3.5248,3.5144,3.5114,3.5134,3.513,3.5214,3.5224,3.5253,3.5384,3.5389,3.5282,3.5286,3.529,3.5292,0,0,0,0,0,0,0,3.4924,3.4941,3.5113,3.5067,3.5069,3.506,3.5071,3.5158,3.5183,3.5116,3.5114,3.5127,3.5214,3.5245,3.5255,3.5391,3.5281,3.5288,3.5293,3.5296,3.5633,3.5637,0,0,0,0,0,0,3.4916,3.4935,3.511,3.5117,3.4989,3.5067,3.5079,3.5123,3.5182,3.5188,3.513,3.5125,3.5233,3.5246,3.5259,3.5409,3.529,3.5297,3.5302,3.5629,3.5634,3.5638,0,0,0,0,0,0,3.4911,3.4932,3.5106,3.5025,3.5047,3.5075,3.5124,3.5127,3.5158,3.5193,3.5197,3.5157,3.5231,3.5248,3.5351,3.5412,3.5301,3.5308,3.5624,3.563,3.5636,3.5709,0,0,0,0,0,0,3.4904,3.493,3.4976,3.5027,3.5051,3.5195,3.5128,3.5131,3.5171,3.5165,3.5219,3.5224,3.5229,3.5339,3.5358,3.5421,3.5314,3.5618,3.5627,3.5634,3.5701,3.5717,3.5731,0,0,0,0,0,3.4896,3.4992,3.4979,3.5,3.5109,3.5199,3.5213,3.5217,3.5176,3.5224,3.5247,3.5223,3.5402,3.535,3.5371,3.5437,3.5615,3.5624,3.5634,3.5695,3.5714,3.573,0,0,0,0,0,0,3.4947,3.4998,3.4984,3.5099,3.5145,3.5192,3.5251,3.5236,3.5295,3.5287,3.5289,3.5301,3.5409,3.5433,3.5374,3.5561,3.5502,3.5517,3.5542,3.556,3.5575,3.5568,3.5321,0,0,0,0,0,3.4971,3.504,3.508,3.5178,3.5202,3.5223,3.5262,3.5261,3.5309,3.5328,3.5358,3.5406,3.5474,3.5518,3.5581,3.5704,3.5717,3.576,3.5775,3.5787,3.58,3.5871,3.5892,3.567,3.567,3.5669,0,0,3.5023,3.5059,3.5102,3.5189,3.5225,3.5297,3.5239,3.5317,3.5371,3.534,3.544,3.5464,3.5517,3.5632,3.5684,3.5656,3.5864,3.5799,3.5808,3.5815,3.5883,3.5904,3.5923,3.5676,3.5675,3.5674,0,0,3.5154,3.5187,3.5274,3.5312,3.5367,3.5381,3.5402,3.5452,3.5467,3.5568,3.5547,3.5611,3.5726,3.5766,3.5802,3.5952,3.5934,3.5972,3.605,3.6119,3.6137,3.6152,3.621,3.623,3.5985,3.5985,3.5985,0,3.5212,3.5319,3.532,3.5401,3.5442,3.5418,3.5507,3.5543,3.5616,3.5645,3.5612,3.5759,3.5792,3.5918,3.5955,3.5983,3.601,3.5967,3.6134,3.615,3.6164,3.6219,3.624,3.599,3.5989,3.5989,3.5988,0,3.5388,3.5463,3.5527,3.56,3.5647,3.5731,3.5747,3.5795,3.5791,3.5809,3.5914,3.5954,3.6027,3.6056,3.6051,3.6183,3.6164,3.6132,3.6074,3.619,3.6242,3.6262,3.5996,3.5995,3.5993,3.5992,0,0,3.5555,3.5629,3.5653,3.5688,3.5748,3.5806,3.5891,3.5963,3.6006,3.6057,3.613,3.6229,3.6202,3.6242,3.6242,3.6303,3.6424,3.6264,3.6266,3.6296,3.6576,3.6602,3.6626,3.6412,3.6415,3.6419,3.6573,0,3.5694,3.5843,3.5848,3.5985,3.6056,3.6035,3.6109,3.6155,3.6175,3.6239,3.626,3.6332,3.6288,3.6313,3.6372,3.6397,3.6481,3.6386,3.6482,3.6485,3.6473,3.6652,3.6679,3.6822,3.6592,3.6596,3.6598,0,3.5876,3.5935,3.6079,3.6133,3.6163,3.623,3.6299,3.6359,3.6412,3.6422,3.6469,3.6461,3.6549,3.6487,3.661,3.6546,3.6585,3.6604,3.661,3.6621,3.6551,3.6672,3.6868,3.6891,3.6629,3.6627,3.6625,0,3.5988,3.6103,3.6206,3.6235,3.6299,3.6347,3.6376,3.6425,3.647,3.653,3.6559,3.6628,3.6667,3.6721,3.6734,3.6686,3.6859,3.6796,3.6872,3.6872,3.6912,3.691,3.712,3.6932,3.6931,3.6931,3.693,0,3.6145,3.6235,3.6258,3.6321,3.6422,3.6428,3.6528,3.6553,3.6598,3.6667,3.6652,3.6717,3.6727,3.6796,3.6805,3.6909,3.6925,3.6938,3.694,3.6941,3.694,3.6969,3.6961,3.6936,3.6935,3.6934,3.6933,0,3.6288,3.6306,3.6417,3.647,3.6485,3.6558,3.6603,3.6665,3.6683,3.6771,3.6792,3.6821,3.6901,3.6918,3.7012,3.7018,3.7143,3.7133,3.7126,3.7126,3.7203,3.7197,3.7443,3.7477,3.7262,3.7264,3.7266,0,3.6388,3.6458,3.6518,3.6564,3.6596,3.6669,3.6715,3.6723,3.6772,3.6839,3.6894,3.6972,3.7036,3.7165,3.7195,3.7268,3.7262,3.7343,3.7273,3.7274,3.7269,3.7266,3.7275,3.7358,3.736,3.7362,3.7363,0,3.6567,3.6573,3.664,3.6712,3.6767,3.6824,3.6877,3.6915,3.6932,3.6988,3.707,3.7119,3.7217,3.7296,3.737,3.7401,3.7387,3.7385,3.7407,3.7411,3.7406,3.7414,3.7166,3.738,3.7378,3.7377,3.7376,3.7375,3.6694,3.6757,3.681,3.6886,3.6928,3.6979,3.7041,3.7068,3.7137,3.7218,3.7218,3.7309,3.7363,3.746,3.7496,3.7568,3.7543,3.7574,3.7583,3.7591,3.7601,3.7391,3.7581,3.758,3.758,3.758,3.7579,0,3.6875,3.6909,3.6979,3.7056,3.7117,3.7097,3.7156,3.7209,3.7289,3.734,3.7404,3.7501,3.7578,3.7615,3.7692,3.7743,3.7739,3.7764,3.7762,3.777,3.7616,3.7592,3.7766,3.7766,3.7766,3.7766,3.7766,3.7766,3.6977,3.7083,3.7096,3.7223,3.7256,3.7346,3.7382,3.743,3.7472,3.758,3.7645,3.7669,3.7716,3.7796,3.7868,3.7877,3.7908,3.7937,3.7943,3.7799,3.778,3.7763,3.7739,3.7942,3.7943,3.8091,3.8093,3.8094]}]]